EHI
0 0 0 0 0 0 0 0 0 0 0 0 0 0 0 0 0 1 2 2 1 0 0 0 0 0 0 0 0 0 0 0 0 0 0 0 1 1 2 3 4 3 2 1
0 0 0 0 0 0 0 0 0 0 0 0 0 0 0 0 0 0 1 1 0 0 0 0 0 0 0 0 0 0 0 0 0 0 0 0 0 1 2 2 2 1 1 1
0 0 0 0 0 0 0 0 0 1 0 0 0 0 0 0 0 0 0 0 0 0 0 0 0 0 0 0 0 0 0 0 0 0 0 0 0 0 1 1 1 0 0 1
0 0 0 0 0 0 0 0 1 2 1 0 0 0 0 0 0 0 0 0 0 0 0 0 0 0 0 0 0 0 0 0 0 0 0 0 0 0 0 0 0 0 0 0
0 0 0 0 0 0 0 0 0 1 0 0 0 0 0 0 0 0 0 0 0 0 0 0 0 0 0 0 0 0 0 0 0 0 0 0 0 0 0 0 0 0 0 0
0 0 0 0 0 0 0 0 0 0 0 0 0 0 0 0 0 0 0 0 0 0 0 0 0 0 0 0 0 0 0 0 0 0 0 0 0 0 0 0 0 0 0 0
0 0 0 0 0 0 0 0 0 0 0 0 0 0 0 0 0 0 0 0 0 0 0 0 0 0 0 0 0 0 0 0 0 0 0 0 0 0 0 0 0 0 0 0
0 0 0 0 0 0 0 0 0 0 0 0 0 0 0 0 0 0 0 0 0 0 0 0 0 0 0 0 0 0 0 0 0 0 0 0 0 0 0 0 0 0 0 0
0 0 0 0 0 0 0 0 0 0 0 0 0 0 0 0 0 0 0 0 0 0 0 0 0 0 0 0 0 0 0 0 0 0 0 0 0 0 0 0 0 0 0 0
0 0 0 0 0 0 0 0 0 0 0 0 0 0 0 0 0 0 0 0 0 0 0 0 0 0 0 0 0 0 0 0 0 0 0 0 0 0 0 0 0 0 0 0
0 0 0 0 0 0 0 0 0 0 0 0 0 0 0 0 0 0 0 0 0 0 0 0 0 0 0 0 0 0 0 0 0 0 0 0 0 0 0 0 0 0 0 0
0 0 0 0 0 0 0 0 0 0 0 0 0 0 0 0 0 0 0 0 0 0 0 0 0 0 0 0 0 0 0 0 0 0 0 0 0 0 0 0 0 0 0 0
0 0 0 0 0 0 0 0 0 0 0 0 0 0 0 0 0 0 0 0 0 0 0 0 0 0 0 0 0 0 0 0 0 0 0 0 0 0 0 0 0 0 0 0
0 0 0 0 0 0 0 0 0 0 0 0 0 0 0 0 0 0 0 0 0 0 0 0 0 0 0 0 0 0 0 0 0 0 0 0 0 0 0 0 0 0 0 0
0 0 0 0 0 0 0 0 0 0 0 0 0 0 0 0 0 0 0 0 0 0 0 0 0 0 0 0 0 0 0 0 0 0 0 0 0 0 0 0 0 0 0 0
0 0 0 0 0 0 0 0 0 0 0 0 0 0 0 0 0 0 0 0 0 0 0 0 0 0 0 0 0 0 0 0 0 0 0 0 0 0 0 0 0 0 0 0
0 0 0 0 0 0 0 0 0 0 0 0 0 0 0 0 0 0 0 0 0 0 0 0 0 0 0 0 0 0 0 0 0 0 0 0 0 0 0 0 0 0 0 0
0 0 0 0 0 0 0 0 0 0 0 0 0 0 0 0 0 0 0 0 0 0 0 0 0 0 0 0 0 0 0 0 0 0 0 0 0 0 0 0 0 0 0 0
0 0 0 0 0 0 0 0 0 0 0 0 0 0 0 0 0 0 0 0 0 0 0 0 0 0 0 0 0 0 0 0 0 0 0 0 0 0 0 0 0 0 0 0
0 0 0 0 0 0 0 0 0 0 0 0 0 0 0 0 0 0 0 0 0 0 0 0 0 0 0 0 0 0 0 0 0 0 0 0 0 0 0 0 0 0 0 0
0 0 0 0 0 0 0 0 0 0 0 0 0 0 0 0 0 0 0 0 0 0 0 0 0 0 0 0 0 0 0 0 0 0 0 0 0 0 0 0 0 0 0 0
0 0 0 0 0 0 0 0 0 0 0 0 0 0 0 0 0 0 0 0 0 0 0 0 0 0 0 0 0 0 0 0 0 0 0 0 0 0 0 0 0 0 0 0
0 0 0 0 0 0 0 0 0 0 0 0 0 0 0 0 0 0 0 0 0 0 0 0 0 0 0 0 0 0 0 0 0 0 0 0 0 0 0 0 0 0 0 0
0 0 0 0 0 0 0 0 0 0 0 0 0 0 0 0 0 0 0 0 0 0 0 0 0 0 0 0 0 0 0 0 0 0 0 0 0 0 0 0 0 0 0 0
0 0 0 0 0 0 0 0 0 0 0 0 0 0 0 0 0 0 0 0 0 0 0 0 0 0 0 0 0 0 0 0 0 0 0 0 0 0 0 0 0 0 0 0
0 0 0 0 0 0 0 0 0 0 0 0 0 0 0 0 0 0 0 0 0 0 0 0 0 0 0 0 0 0 0 0 0 0 0 0 0 0 0 0 0 0 0 0
Wind_Speed
3 4 2 5 6 5 2 1 1 2 5 9 12 11 10 10 11 11 10 9 9 7 6 6 6 6 5 6 5 5 6 6 5 3 3 4 3 2 2 2 4 7 7 7
5 2 5 4 3 4 3 1 2 4 7 7 9 10 7 9 8 8 8 7 7 6 6 6 6 5 5 5 5 5 6 6 6 4 3 2 3 2 1 2 3 5 5 5
2 5 4 1 1 2 2 3 4 5 5 5 6 5 4 5 6 7 7 6 6 6 6 5 5 5 5 5 5 4 4 5 5 5 3 3 3 3 4 4 3 4 4 3
3 3 2 1 0 1 2 2 3 7 5 2 3 2 1 1 4 5 5 5 5 5 4 4 4 5 5 4 3 3 4 4 4 4 4 5 3 3 3 3 3 5 5 3
4 2 2 2 2 1 1 3 4 4 5 4 4 4 2 3 2 3 2 2 3 4 4 4 5 4 5 4 4 3 3 3 3 3 3 3 2 1 2 2 4 5 5 5
4 3 2 3 2 1 3 5 6 5 5 3 2 2 3 4 5 4 3 3 3 4 5 5 6 5 6 6 5 4 3 3 3 2 1 1 1 1 2 3 3 3 3 3
8 6 3 1 2 4 5 6 6 6 5 2 1 1 3 2 3 4 5 5 5 5 5 6 7 7 7 7 7 6 5 5 5 4 3 2 2 2 2 2 2 2 2 2
4 7 5 4 1 1 2 7 6 3 3 4 3 1 2 1 2 2 2 3 4 5 6 7 9 9 9 9 8 7 6 7 6 6 5 5 4 3 3 4 4 3 3 3
1 6 6 4 3 1 3 3 4 6 2 1 3 3 3 2 1 1 1 2 4 6 7 8 9 9 9 9 9 8 7 8 8 8 7 7 7 6 6 6 5 4 4 4
2 4 6 7 7 8 5 6 5 5 3 1 4 2 4 5 3 1 0 2 4 6 7 8 8 7 7 7 8 8 8 9 9 9 8 8 8 8 8 6 7 7 6 6
3 2 6 6 6 6 5 5 6 4 4 4 2 3 2 3 1 0 2 3 5 7 8 8 7 7 8 8 8 8 9 9 10 10 10 9 9 9 8 8 9 8 7 7
3 4 2 3 4 2 4 4 3 3 0 2 2 4 2 0 1 0 3 5 6 8 8 8 8 8 8 9 9 10 10 11 12 11 10 11 10 9 9 10 10 9 9 8
4 6 4 7 8 7 6 5 4 5 4 2 1 5 2 1 2 3 5 7 8 9 9 8 8 9 9 10 10 10 11 12 12 11 11 12 12 11 11 12 11 10 10 10
6 5 4 3 4 2 3 5 4 4 3 1 4 6 3 3 5 7 8 8 8 9 9 9 9 10 10 11 11 11 12 12 13 12 12 13 13 13 13 12 11 11 11 10
6 5 1 0 1 3 3 3 4 3 2 4 6 6 5 4 6 7 8 9 9 10 10 10 10 10 10 11 11 11 12 12 12 12 13 14 14 13 13 12 11 11 10 11
5 4 2 1 2 4 3 2 2 1 1 3 4 6 5 4 5 7 9 10 10 10 11 11 11 11 11 11 11 11 11 11 11 12 14 14 14 14 14 13 12 11 11 10
3 4 3 2 2 0 2 3 2 3 4 4 6 6 5 7 8 8 9 9 10 11 12 12 11 11 11 11 11 12 12 12 12 13 14 14 14 14 14 15 13 11 11 10
6 5 3 1 2 3 5 2 3 4 5 6 6 7 7 10 8 9 9 8 10 10 10 11 11 11 11 11 12 12 12 12 13 14 14 14 14 15 14 13 13 11 9 8
4 7 4 3 0 5 3 3 3 3 7 6 5 8 7 7 6 6 6 5 7 9 10 11 12 13 12 12 12 13 13 13 14 15 15 15 14 15 14 14 12 10 8 8
5 5 6 3 1 5 6 2 1 1 6 5 5 7 7 5 6 7 6 7 9 10 10 11 11 12 12 12 12 13 14 14 15 15 15 15 14 14 14 13 11 9 8 8
2 4 3 3 4 8 5 1 2 1 6 3 4 6 5 5 7 8 9 9 9 11 13 12 12 12 12 12 12 14 14 15 15 16 15 15 13 12 12 10 9 8 7 7
5 4 3 4 2 8 4 5 5 8 3 2 4 5 6 7 8 8 8 9 11 11 11 11 11 13 12 11 12 14 15 15 15 15 15 14 12 10 9 8 7 6 6 6
6 8 7 9 8 5 4 7 5 5 4 3 4 5 5 6 7 7 7 9 10 11 11 11 12 13 13 11 11 14 15 15 15 14 14 12 11 9 8 7 6 5 4 4
3 3 4 3 6 5 4 4 3 5 5 4 4 5 4 5 7 9 8 9 10 9 11 11 12 14 14 13 13 13 14 14 14 14 13 11 10 9 7 6 4 4 3 3
5 5 3 4 5 3 6 7 5 4 4 4 4 3 4 5 7 7 7 9 9 10 10 10 12 13 14 14 14 13 13 13 13 13 11 10 8 8 7 6 4 4 4 4
6 9 8 8 8 7 7 6 6 5 5 5 4 4 4 4 7 7 8 8 9 11 11 11 12 13 14 14 14 13 12 12 12 11 10 8 7 6 5 5 5 3 3 3
Wind_Direction
40 60 290 249 208 214 236 213 122 125 124 72 75 66 38 32 45 54 58 58 57 53 45 40 38 36 42 35 24 15 5 357 353 341 332 328 317 287 246 240 264 251 237 223
32 322 262 257 213 196 195 155 113 98 115 104 92 68 38 32 38 41 48 48 48 47 39 29 26 25 32 33 26 22 15 4 357 342 314 295 306 315 352 359 306 276 252 226
190 248 288 320 90 137 184 184 177 154 115 120 119 72 27 10 24 37 37 36 36 41 33 15 9 10 20 23 16 14 7 3 360 354 343 339 353 356 13 7 345 319 303 259
265 272 321 355 2 121 285 268 170 147 138 161 173 125 172 333 355 8 13 15 18 12 9 356 352 354 2 358 351 351 351 355 355 7 35 45 35 17 356 337 333 335 342 334
287 301 319 299 269 181 211 49 76 107 121 84 42 112 195 194 259 286 309 336 339 335 333 324 322 321 316 312 311 307 318 335 342 9 41 61 51 359 319 334 347 349 352 359
270 282 242 253 306 78 118 74 58 56 69 63 330 144 225 209 203 207 230 252 273 291 298 298 299 298 294 292 290 287 295 301 308 331 18 69 52 349 348 345 343 341 337 344
336 332 318 291 356 16 71 74 28 8 12 276 296 148 248 220 178 183 202 224 246 267 278 284 285 283 279 278 274 272 276 280 283 285 280 258 244 252 266 278 291 303 311 310
360 320 322 350 352 288 80 123 145 199 233 284 343 296 296 164 141 148 181 217 248 265 272 275 274 274 276 277 276 270 265 266 271 273 272 268 258 248 249 250 250 255 253 259
294 287 315 348 347 84 95 76 141 127 134 351 305 311 355 61 72 143 187 236 261 270 273 274 277 280 281 282 279 271 266 267 267 263 262 263 258 250 249 252 251 254 255 259
151 290 315 322 21 25 85 131 86 92 118 304 310 342 333 326 308 277 260 271 282 285 284 285 287 291 293 292 290 286 270 264 266 266 260 260 252 248 246 247 250 249 252 255
100 91 329 16 28 340 10 51 82 93 130 150 267 281 340 302 317 253 275 281 283 285 287 288 293 298 296 297 293 288 283 277 274 270 266 263 260 254 248 244 246 246 247 246
99 103 2 314 314 343 68 61 111 112 109 134 186 262 315 340 23 299 286 284 285 286 287 289 293 295 295 293 291 287 283 280 277 275 273 270 265 260 252 248 246 242 241 241
114 86 39 354 346 4 34 33 73 95 96 107 205 265 205 321 312 292 284 286 290 296 298 299 300 296 293 292 291 289 286 284 284 284 281 279 275 268 259 252 246 240 237 238
99 85 133 184 249 314 32 21 43 83 91 264 239 257 246 299 301 297 293 291 296 299 299 296 296 294 293 293 294 293 291 289 289 288 284 281 277 273 268 260 251 242 235 233
83 92 87 16 353 99 83 60 60 91 163 209 258 261 254 256 277 281 284 291 298 297 297 296 295 295 294 296 296 294 292 292 292 291 288 284 281 278 275 268 258 250 239 234
67 111 98 48 59 89 80 44 73 116 240 250 269 272 245 271 285 283 285 289 292 294 298 300 301 301 301 300 300 298 296 295 293 291 289 288 286 284 280 274 265 255 245 236
85 117 112 221 261 292 261 222 214 231 231 222 241 255 287 293 286 279 284 293 295 299 302 302 302 299 298 299 300 300 296 297 294 291 291 290 287 285 282 279 273 261 251 239
123 102 112 115 45 263 252 228 208 227 240 215 230 258 275 269 275 275 276 281 289 295 297 299 299 298 298 298 299 299 300 299 297 295 292 291 288 285 283 279 271 263 255 244
127 129 113 107 262 287 271 219 192 227 269 214 231 263 275 294 318 292 274 278 284 292 296 299 300 301 301 302 303 304 304 302 300 298 295 292 288 286 284 279 270 263 254 245
64 87 109 123 186 252 247 210 165 144 287 224 227 267 285 323 326 285 290 309 304 303 301 301 301 302 304 305 308 309 310 309 307 304 300 296 291 286 283 280 273 264 251 242
46 50 103 159 225 262 241 176 98 201 265 220 230 261 275 253 240 270 301 302 296 296 300 302 305 308 309 311 313 313 313 312 311 308 305 303 299 293 287 283 277 268 257 244
174 162 184 157 214 264 202 144 186 220 234 239 254 262 265 264 273 288 296 296 302 304 305 308 311 314 313 314 317 316 316 315 314 313 311 310 306 301 299 293 285 276 259 243
192 188 187 187 212 241 206 202 211 181 209 244 251 265 275 282 286 292 291 295 300 303 307 311 313 316 317 318 318 317 316 318 319 318 316 315 313 310 303 295 288 279 257 239
246 145 152 239 259 238 231 229 216 194 214 243 258 275 279 279 283 289 290 295 303 306 312 313 317 320 321 321 321 317 317 320 320 321 321 320 320 317 312 303 289 271 251 232
226 169 184 247 267 254 255 234 223 219 233 264 280 274 271 274 281 282 291 300 306 311 312 314 318 319 320 321 321 321 322 324 324 323 323 324 324 323 321 316 306 285 255 233
198 177 176 219 214 192 232 224 198 205 232 248 260 273 276 269 275 286 294 298 305 312 314 317 320 322 322 322 320 322 325 327 326 324 325 324 323 324 323 323 326 330 311 263